Zurück zum Katalog

NOAA 16 DEB

AktivPO
NORAD 42341·DEBRIS·🇺🇸 United States

Gestartet Sep 21, 2000 von Vandenberg Space Force Base

Loading…

Nächste Überflüge (nächste 24 Stunden)

TLE

AktuellSource: Space-Track

Epoche: Sep 13, 2026, 05:32 UTC

1 42341U 00055QH  26256.23063236  .00015586  00000-0  19230-2 0  9992
2 42341  98.7229  56.6089 0022156  76.4500 283.9177 14.82797174553858

Verfolge NOAA 16 DEB in Echtzeit mit AllMySat

Download on the App Store